1499209200.9,48806,15.94,74238.5,-0.13,-1.17,-1.13,0,*64
1499209202.17,48807,15.94,74232.8,-0.13,-1.13,-1.05,0,*66
1499209203.44,48808,15.94,74236.0,-0.13,-1.05,-1.13,0,*69
1499209204.67,48809,15.94,74236.3,-0.15,-1.13,-1.13,0,*69
1499209205.92,48810,15.94,74236.5,-0.15,-1.05,-1.05,0,*61
1499209207.15,48811,15.94,74236.0,-0.15,-1.13,-1.13,0,*60
1499209208.35,48812,16.0,74240.0,-0.15,-1.17,-1.25,0,*62
1499209209.54,48813,15.94,74236.8,-0.15,-1.17,-1.17,0,*62
1499209210.79,48814,15.94,74238.3,-0.15,-1.01,-1.05,0,*61
1499209212.03,48815,15.94,74238.0,-0.15,-1.05,-1.13,0,*63
1499209213.27,48816,15.94,74234.0,-0.13,-1.13,-1.17,0,*65
1499209214.51,48817,15.94,74236.3,-0.15,-1.05,-1.13,0,*61
1499209215.73,48818,15.94,74236.3,-0.13,-1.25,-1.17,0,*6E
1499209216.91,48819,15.94,74236.0,-0.15,-1.25,-1.25,0,*68
1499209218.13,48820,16.0,74240.3,-0.15,-1.25,-1.35,0,*63
1499209219.38,48821,15.94,74236.3,-0.17,-1.33,-1.39,0,*6B
1499209220.6,48822,15.94,74234.5,-0.17,-1.33,-1.33,0,*62
1499209221.83,48823,15.94,74238.0,-0.17,-1.21,-1.29,0,*6B
1499209223.05,48824,16.0,74240.5,-0.17,-1.21,-1.29,0,*6C
1499209224.3,48825,15.94,74238.0,-0.17,-1.33,-1.39,0,*6F
1499209225.52,48826,16.0,74238.5,-0.17,-1.33,-1.33,0,*66
1499209226.75,48827,15.94,74236.8,-0.17,-1.21,-1.33,0,*64
1499209227.97,48828,15.94,74242.0,-0.17,-1.21,-1.21,0,*68
1499209229.19,48829,15.94,74242.0,-0.17,-1.29,-1.33,0,*62
1499209230.38,48830,15.94,74240.3,-0.21,-1.21,-1.29,0,*6C
1499209231.57,48831,15.94,74238.0,-0.21,-1.29,-1.29,0,*65
1499209232.84,48832,15.94,74236.3,-0.17,-1.09,-1.09,0,*63
1499209234.1,48833,15.94,74238.5,-0.17,-0.97,-0.97,0,*62
1499209235.35,48834,15.94,74232.8,-0.17,-0.93,-0.93,0,*65
1499209236.61,48835,15.94,74234.5,-0.17,-0.93,-0.97,0,*60
1499209237.88,48836,15.94,74236.0,-0.17,-1.05,-1.05,0,*67
1499209239.15,48837,15.94,74238.3,-0.17,-1.09,-1.05,0,*6A
1499209240.42,48838,15.94,74238.0,-0.17,-1.05,-0.97,0,*53
1499209241.68,48839,15.94,74238.3,-0.17,-0.97,-0.93,0,*6C
1499209242.9,48840,15.94,74242.0,-0.15,-0.89,-0.89,0,*64
1499209244.13,48841,15.94,74240.5,-0.15,-0.89,-0.89,0,*65
1499209245.36,48842,15.94,74238.0,-0.15,-0.93,-0.93,0,*66
1499209246.58,48843,15.94,74238.5,-0.15,-0.89,-0.93,0,*6C
1499209247.79,48844,15.94,74236.5,-0.15,-0.77,-0.85,0,*6D
1499209248.97,48845,15.94,74234.0,-0.15,-0.77,-0.73,0,*65
1499209250.16,48846,16.0,74232.5,-0.15,-0.73,-0.73,0,*62
1499209251.39,48847,15.94,74234.5,-0.15,-0.89,-0.85,0,*6F
1499209252.64,48848,15.94,74236.0,-0.13,-0.89,-0.89,0,*6A
1499209253.87,48849,15.94,74234.0,-0.15,-0.85,-0.89,0,*61
1499209255.1,48850,15.94,74236.0,-0.15,-0.89,-0.89,0,*65
1499209256.35,48851,15.94,74234.0,-0.13,-0.85,-0.85,0,*62
1499209257.61,48852,15.94,74230.8,-0.13,-0.89,-0.89,0,*61
1499209258.86,48853,15.94,74234.5,-0.13,-0.93,-0.93,0,*60
1499209260.11,48854,15.94,74232.8,-0.13,-0.93,-0.89,0,*6C
1499209261.36,48855,15.94,74232.0,-0.13,-0.89,-0.89,0,*66
1499209262.59,48856,15.94,74230.5,-0.11,-0.85,-0.85,0,*67
1499209263.81,48857,15.94,74224.5,-0.11,-0.89,-0.85,0,*6A
1499209265.04,48858,15.94,74224.3,-0.11,-0.89,-0.89,0,*69
1499209266.3,48859,15.94,74226.5,-0.13,-1.01,-1.01,0,*6A
1499209267.54,48860,15.94,74228.0,-0.15,-1.01,-1.01,0,*66
1499209268.78,48861,15.94,74232.3,-0.15,-1.13,-1.05,0,*60
1499209270.04,48862,15.94,74232.8,-0.13,-0.93,-1.01,0,*58
1499209271.3,48863,15.94,74232.0,-0.13,-1.13,-1.13,0,*63
1499209272.55,48864,15.94,74232.3,-0.15,-1.05,-1.05,0,*62
1499209273.77,48865,15.94,74234.5,-0.15,-1.17,-1.13,0,*67
1499209275.01,48866,16.0,74238.5,-0.13,-1.13,-1.17,0,*62
1499209276.23,48867,15.94,74238.0,-0.13,-1.17,-1.25,0,*66
1499209277.45,48868,15.94,74236.3,-0.13,-1.29,-1.25,0,*64
1499209278.66,48869,15.94,74234.8,-0.13,-1.29,-1.25,0,*65
1499209279.88,48870,15.94,74232.3,-0.15,-1.17,-1.13,0,*63
1499209281.13,48871,15.94,74238.5,-0.13,-0.89,-0.89,0,*60
1499209282.39,48872,15.94,74240.5,-0.13,-0.85,-0.85,0,*63
1499209283.64,48873,15.94,74242.8,-0.13,-0.85,-0.89,0,*6E
1499209284.9,48874,15.94,74240.5,-0.13,-0.85,-0.89,0,*69
1499209286.15,48875,15.94,74240.8,-0.13,-0.85,-0.85,0,*64
1499209287.38,48876,15.94,74234.3,-0.15,-0.89,-0.89,0,*61
1499209288.63,48877,15.94,74234.0,-0.13,-0.89,-0.93,0,*6D
1499209289.9,48878,15.94,74230.5,-0.13,-1.13,-1.05,0,*6E
1499209291.16,48879,15.94,74232.5,-0.13,-1.01,-0.93,0,*52
1499209292.41,48880,15.94,74230.8,-0.13,-0.93,-0.93,0,*6E
1499209293.65,48881,15.94,74230.3,-0.15,-1.01,-1.01,0,*69
1499209294.92,48882,15.94,74230.8,-0.13,-1.01,-1.01,0,*6C
1499209296.14,48883,15.94,74230.0,-0.15,-0.93,-0.93,0,*6B
1499209297.39,48884,15.94,74228.0,-0.13,-0.93,-0.93,0,*6A
1499209298.64,48885,15.94,74232.8,-0.13,-0.93,-0.93,0,*6B
1499209299.9,48886,15.94,74232.5,-0.13,-0.85,-0.89,0,*64
1499209301.08,48887,15.94,74234.0,-0.15,-0.73,-0.65,0,*68
1499209302.28,48888,15.94,74230.5,-0.13,-0.65,-0.65,0,*66
1499209303.49,48889,15.94,74228.8,-0.13,-0.65,-0.61,0,*63
1499209304.67,48890,15.94,74230.0,-0.11,-0.57,-0.57,0,*6D
1499209305.84,48891,15.94,74232.0,-0.11,-0.45,-0.45,0,*6C
1499209307.03,48892,15.94,74228.5,-0.11,-0.45,-0.49,0,*63
1499209308.22,48893,15.94,74230.3,-0.09,-0.61,-0.57,0,*52
1499209309.39,48894,16.0,74232.8,-0.11,-0.61,-0.61,0,*69
1499209310.59,48895,15.94,74232.8,-0.09,-0.49,-0.49,0,*51
1499209311.8,48896,15.94,74236.8,-0.09,-0.57,-0.57,0,*52
1499209312.97,48897,15.94,74238.5,-0.07,-0.49,-0.49,0,*5D
1499209314.17,48898,15.94,74238.8,-0.05,-0.37,-0.29,0,*5F
1499209315.35,48899,15.94,74236.3,-0.07,-0.45,-0.33,0,*52
1499209316.52,48900,15.94,74236.0,-0.07,-0.41,-0.29,0,*5C
1499209317.7,48901,15.94,74234.3,-0.07,-0.41,-0.33,0,*56
1499209318.89,48902,15.94,74234.3,-0.07,-0.45,-0.41,0,*54
1499209320.08,48903,15.94,74232.3,-0.05,-0.49,-0.53,0,*58
1499209321.29,48904,15.94,74238.0,-0.05,-0.41,-0.41,0,*54
1499209322.49,48905,15.94,74238.3,-0.05,-0.53,-0.49,0,*5E
1499209323.69,48906,15.94,74244.0,-0.05,-0.53,-0.53,0,*56
1499209324.89,48907,15.94,74242.0,-0.05,-0.53,-0.53,0,*57
1499209326.09,48908,15.94,74242.0,-0.05,-0.49,-0.41,0,*50
1499209327.28,48909,15.94,74240.5,-0.03,-0.41,-0.49,0,*57
1499209328.45,48910,15.94,74242.3,-0.03,-0.53,-0.53,0,*57
1499209329.65,48911,15.94,74246.3,-0.01,-0.37,-0.37,0,*54
1499209330.83,48912,15.94,74246.8,-0.03,-0.41,-0.37,0,*54
1499209332.01,48913,15.94,74246.5,-0.03,-0.37,-0.37,0,*54
1499209333.21,48914,15.94,74242.8,-0.01,-0.37,-0.45,0,*54
1499209334.39,48915,15.94,74242.5,-0.03,-0.41,-0.37,0,*53
1499209335.63,48916,15.94,74242.3,-0.01,-0.27,-0.27,0,*53
1499209336.84,48917,15.94,74238.3,-0.01,-0.15,-0.15,0,*52
1499209338.06,48918,15.94,74236.0,-0.01,-0.23,-0.15,0,*58
1499209339.31,48919,15.94,74238.3,-0.01,-0.27,-0.27,0,*5C
1499209340.51,48920,15.94,74244.5,-0.01,-0.37,-0.45,0,*53
1499209341.71,48921,15.94,74242.8,-0.01,-0.45,-0.45,0,*57
1499209342.88,48922,15.94,74240.5,0.05,-0.53,-0.53,0,*7D
1499209344.04,48923,15.94,74240.5,0.01,-0.57,-0.61,0,*7D
1499209345.2,48924,15.94,74242.0,0.01,-0.61,-0.61,0,*7F
1499209346.36,48925,15.94,74244.0,0.01,-0.57,-0.57,0,*7E
1499209347.53,48926,15.94,74242.5,0.01,-0.49,-0.45,0,*71
1499209348.69,48927,16.0,74248.5,0.05,-0.49,-0.49,0,*78
1499209349.86,48928,15.94,74242.0,0.05,-0.57,-0.57,0,*77
1499209351.02,48929,15.94,74240.3,0.01,-0.61,-0.69,0,*7A
1499209352.18,48930,15.94,74238.8,0.01,-0.61,-0.57,0,*7F
1499209353.35,48931,15.94,74240.5,0.01,-0.45,-0.45,0,*7B
1499209354.51,48932,15.94,74238.8,0.05,-0.29,-0.29,0,*7C
1499209355.68,48933,15.94,74242.3,0.05,-0.11,-0.19,0,*75
1499209356.86,48934,15.94,74240.3,0.05,-0.11,-0.11,0,*7A
1499209358.03,48935,15.94,74232.8,0.05,-0.11,-0.11,0,*7B
1499209359.21,48936,15.94,74234.5,0.05,-0.19,-0.11,0,*70
1499209360.4,48937,15.94,74234.5,0.07,-0.15,-0.03,0,*4C
1499209361.6,48938,15.94,74230.8,0.07,-0.19,-0.15,0,*78
1499209362.76,48939,15.94,74224.0,0.09,-0.07,-0.15,0,*48
1499209363.97,48940,15.94,74224.0,0.07,-0.19,-0.15,0,*77
1499209365.14,48941,15.94,74224.5,0.09,-0.19,-0.19,0,*74
1499209366.3,48942,15.94,74224.0,0.09,-0.03,-0.07,0,*73
1499209367.47,48943,15.94,74224.8,0.09,-0.15,-0.15,0,*76
1499209368.64,48944,15.94,74224.5,0.09,-0.15,-0.15,0,*71
1499209369.81,48945,15.94,74224.0,0.09,-0.19,-0.19,0,*70
1499209370.98,48946,15.94,74224.5,0.09,-0.19,-0.19,0,*73
1499209372.15,48947,15.94,74224.8,0.09,-0.19,-0.19,0,*72
1499209373.36,48948,15.94,74220.3,0.09,-0.27,-0.27,0,*7D
1499209374.58,48949,16.0,74224.3,0.09,-0.27,-0.27,0,*7C
1499209375.82,48950,15.94,74224.0,0.11,-0.23,-0.23,0,*4D
1499209377.06,48951,15.94,74224.3,0.11,-0.23,-0.23,0,*4C
1499209378.29,48952,15.94,74230.5,0.13,-0.23,-0.15,0,*48
1499209379.52,48953,15.94,74228.8,0.13,-0.23,-0.15,0,*49
1499209380.76,48954,15.94,74230.3,0.11,-0.23,-0.23,0,*49
1499209382.01,48955,15.94,74234.3,0.11,-0.23,-0.23,0,*48
1499209383.21,48956,16.0,74236.5,0.13,-0.15,-0.15,0,*49
1499209384.42,48957,15.94,74238.0,0.13,-0.15,-0.15,0,*48
1499209385.65,48958,15.94,74230.3,0.13,-0.23,-0.15,0,*42
1499209386.88,48959,15.94,74234.5,0.13,-0.23,-0.11,0,*47
1499209388.09,48960,15.94,74234.5,0.13,-0.15,-0.11,0,*48
1499209389.29,48961,15.94,74236.8,0.15,-0.11,-0.23,0,*4A
1499209390.49,48962,15.94,74238.0,0.15,-0.23,-0.19,0,*41
1499209391.72,48963,15.94,74242.8,0.15,-0.23,-0.23,0,*49
1499209392.88,48964,15.94,74238.8,0.15,-0.29,-0.29,0,*4E
1499209394.05,48965,15.94,74242.5,0.15,-0.29,-0.29,0,*4F
1499209395.23,48966,15.94,74232.5,0.15,-0.33,-0.45,0,*4D
1499209396.41,48967,15.94,74232.8,0.15,-0.33,-0.41,0,*48
1499209397.58,48968,15.94,74234.8,0.15,-0.33,-0.33,0,*42
1499209398.77,48969,15.94,74238.5,0.17,-0.33,-0.29,0,*4A
1499209399.99,48970,15.94,74234.5,0.17,-0.29,-0.23,0,*43
1499209401.18,48971,15.94,74238.8,0.17,-0.33,-0.29,0,*43
1499209402.38,48972,15.94,74234.8,0.17,-0.45,-0.41,0,*4F
1499209403.56,48973,16.0,74238.5,0.15,-0.45,-0.45,0,*48
1499209404.74,48974,15.94,74234.3,0.15,-0.45,-0.41,0,*4B
1499209405.92,48975,15.94,74232.3,0.15,-0.41,-0.45,0,*4A
1499209407.12,48976,15.94,74230.8,0.17,-0.45,-0.45,0,*4F
1499209408.29,48977,15.94,74230.8,0.15,-0.33,-0.41,0,*49
1499209409.47,48978,15.94,74230.8,0.15,-0.45,-0.33,0,*42
1499209410.66,48979,15.94,74234.0,0.15,-0.41,-0.33,0,*47
1499209411.85,48980,15.94,74232.8,0.17,-0.41,-0.29,0,*48
1499209413.05,48981,15.94,74232.3,0.17,-0.33,-0.33,0,*47
1499209414.25,48982,15.94,74234.5,0.17,-0.41,-0.33,0,*41
1499209415.45,48983,15.94,74238.0,0.17,-0.33,-0.33,0,*45
1499209416.64,48984,15.94,74240.0,0.17,-0.33,-0.29,0,*49
1499209417.83,48985,15.94,74236.5,0.17,-0.29,-0.29,0,*43
1499209419.02,48986,16.0,74240.5,0.17,-0.29,-0.29,0,*40
1499209420.2,48987,15.94,74236.5,0.17,-0.29,-0.29,0,*41
1499209421.39,48988,15.94,74236.8,0.17,-0.29,-0.29,0,*4E
1499209422.59,48989,15.94,74236.8,0.17,-0.33,-0.33,0,*4F
1499209423.78,48990,15.94,74236.0,0.19,-0.29,-0.27,0,*47
1499209424.96,48991,15.94,74238.0,0.19,-0.37,-0.29,0,*47
1499209426.14,48992,15.94,74242.5,0.19,-0.37,-0.37,0,*4B
1499209427.32,48993,15.94,74238.3,0.19,-0.41,-0.41,0,*4A
1499209428.51,48994,15.94,74236.5,0.19,-0.53,-0.41,0,*4E
1499209429.69,48995,15.94,74236.0,0.19,-0.41,-0.41,0,*4C
1499209430.87,48996,15.94,74238.3,0.19,-0.37,-0.41,0,*4E
1499209432.07,48997,15.94,74234.3,0.17,-0.45,-0.45,0,*40
1499209433.27,48998,15.94,74232.3,0.17,-0.53,-0.45,0,*48
1499209434.46,48999,15.94,74232.0,0.17,-0.53,-0.45,0,*49
1499209435.66,49000,15.94,74236.0,0.17,-0.53,-0.45,0,*41
1499209436.86,49001,15.94,74232.3,0.17,-0.45,-0.41,0,*43
1499209438.07,49002,15.94,74234.0,0.17,-0.41,-0.41,0,*44
1499209439.27,49003,15.94,74236.3,0.17,-0.45,-0.41,0,*41
1499209440.45,49004,15.94,74238.5,0.19,-0.37,-0.29,0,*43
1499209441.62,49005,15.94,74238.5,0.19,-0.37,-0.29,0,*42
1499209442.79,49006,16.0,74242.3,0.19,-0.37,-0.29,0,*41
1499209443.96,49007,15.94,74240.8,0.19,-0.29,-0.29,0,*4F
1499209445.18,49008,15.94,74236.5,0.19,-0.27,-0.27,0,*40
1499209446.38,49009,15.94,74236.0,0.19,-0.29,-0.27,0,*4F
1499209447.57,49010,15.94,74238.0,0.21,-0.29,-0.29,0,*42
1499209448.77,49011,15.94,74236.8,0.19,-0.27,-0.29,0,*46
1499209449.96,49012,15.94,74238.8,0.19,-0.29,-0.27,0,*45
1499209451.14,49013,15.94,74240.3,0.19,-0.37,-0.37,0,*4A
1499209452.32,49014,15.94,74238.8,0.19,-0.41,-0.37,0,*4C
1499209453.51,49015,15.94,74242.0,0.19,-0.41,-0.37,0,*4D
1499209454.71,49016,15.94,74242.5,0.21,-0.37,-0.37,0,*44
1499209455.91,49017,15.94,74242.8,0.21,-0.37,-0.29,0,*4A
1499209457.08,49018,15.94,74242.5,0.19,-0.37,-0.29,0,*4E
1499209458.25,49019,15.94,74238.3,0.19,-0.37,-0.29,0,*4F
1499209459.42,49020,15.94,74240.8,0.19,-0.37,-0.29,0,*45
1499209460.64,49021,15.94,74240.5,0.21,-0.29,-0.27,0,*4E
1499209461.84,49022,15.94,74242.0,0.19,-0.27,-0.29,0,*46
1499209463.04,49023,15.94,74242.8,0.21,-0.37,-0.37,0,*42
1499209464.22,49024,15.94,74242.0,0.19,-0.37,-0.29,0,*41
1499209465.44,49025,15.94,74246.8,0.21,-0.37,-0.27,0,*45
1499209466.66,49026,15.94,74246.3,0.21,-0.29,-0.27,0,*49
1499209467.9,49027,16.0,74250.8,0.21,-0.27,-0.27,0,*46
1499209469.13,49028,15.94,74240.3,0.23,-0.27,-0.27,0,*4B
1499209470.31,49029,15.94,74242.0,0.27,-0.19,-0.19,0,*4E
1499209471.53,49030,15.94,74240.3,0.21,-0.27,-0.15,0,*41
1499209472.78,49031,15.94,74244.8,0.21,-0.27,-0.27,0,*41
1499209473.98,49032,15.94,74244.0,0.21,-0.19,-0.19,0,*42
1499209475.21,49033,15.94,74238.5,0.23,-0.23,-0.23,0,*41
1499209476.43,49034,15.94,74238.3,0.23,-0.23,-0.23,0,*46
1499209477.65,49035,15.94,74236.8,0.23,-0.27,-0.27,0,*47
1499209478.88,49036,15.94,74236.8,0.23,-0.23,-0.23,0,*44
1499209480.08,49037,15.94,74232.8,0.27,-0.23,-0.19,0,*48
1499209481.3,49038,15.94,74234.0,0.27,-0.23,-0.23,0,*4E
1499209482.52,49039,15.94,74228.5,0.23,-0.27,-0.27,0,*4B
1499209483.74,49040,15.94,74234.5,0.23,-0.23,-0.23,0,*45
1499209484.97,49041,15.94,74236.5,0.23,-0.27,-0.23,0,*40
1499209486.19,49042,15.94,74236.3,0.27,-0.23,-0.23,0,*43
1499209487.37,49043,15.94,74232.0,0.27,-0.19,-0.19,0,*42
1499209488.55,49044,15.94,74234.0,0.23,-0.15,-0.15,0,*41
1499209489.73,49045,15.94,74232.0,0.27,-0.19,-0.11,0,*4C
1499209490.9,49046,15.94,74228.3,0.23,-0.03,-0.03,0,*43
1499209492.06,49047,15.94,74234.3,0.27,0.05,0.05,0,*46
1499209493.26,49048,15.94,74234.0,0.27,0.13,0.17,0,*4D
1499209494.47,49049,15.94,74234.3,0.27,0.17,0.17,0,*48
1499209495.65,49050,15.94,74236.8,0.29,0.05,0.05,0,*4E
1499209496.88,49051,15.94,74238.0,0.29,0.17,0.17,0,*4F
1499209498.09,49052,15.94,74238.3,0.31,0.21,0.21,0,*45
1499209499.3,49053,15.94,74232.5,0.31,0.17,0.21,0,*41
1499209500.5,49054,15.94,74236.0,0.31,0.17,0.17,0,*43
1499209501.7,49055,15.94,74234.5,0.31,0.17,0.17,0,*42
1499209502.9,49056,15.94,74236.5,0.31,0.17,0.21,0,*44
1499209504.06,49057,15.94,74240.0,0.31,0.09,0.09,0,*40
1499209505.22,49058,15.94,74240.5,0.31,0.05,0.09,0,*43
1499209506.38,49059,15.94,74236.5,0.31,0.05,0.05,0,*4E
1499209507.53,49060,15.94,74244.3,0.31,0.05,0.09,0,*48
1499209508.69,49061,15.94,74242.3,0.31,0.05,0.05,0,*45
1499209509.85,49062,16.0,74246.5,0.31,0.09,0.09,0,*46
1499209511.05,49063,15.94,74242.0,0.33,0.09,0.17,0,*7A
1499209512.25,49064,15.94,74240.0,0.33,0.09,0.17,0,*7D
1499209513.46,49065,15.94,74242.0,0.35,0.13,0.25,0,*40
1499209514.64,49066,15.94,74246.0,0.33,0.05,0.09,0,*4C
1499209515.82,49067,15.94,74246.5,0.35,0.09,0.13,0,*7C
1499209516.98,49068,15.94,74244.3,0.35,0.09,0.09,0,*48
1499209518.18,49069,15.94,74242.3,0.35,0.13,0.13,0,*49
1499209519.34,49070,15.94,74246.0,0.35,0.09,0.09,0,*41
1499209520.5,49071,15.94,74246.0,0.35,0.09,0.09,0,*40
1499209521.67,49072,15.94,74246.3,0.35,0.01,0.13,0,*70
1499209522.82,49073,15.94,74246.3,0.35,0.01,0.01,0,*42
1499209524.0,49074,15.94,74250.8,0.35,-0.11,-0.03,0,*76
1499209525.18,49075,15.94,74246.3,0.35,-0.15,-0.15,0,*44
1499209526.36,49076,15.94,74244.3,0.35,-0.15,-0.15,0,*47
1499209527.54,49077,15.94,74246.0,0.35,-0.11,-0.11,0,*46
1499209528.72,49078,15.94,74244.0,0.35,-0.15,-0.11,0,*4D
1499209529.9,49079,15.94,74242.5,0.35,-0.11,-0.11,0,*48
1499209531.08,49080,15.94,74238.0,0.35,-0.15,-0.11,0,*4A
1499209532.26,49081,15.94,74236.0,0.35,-0.03,-0.11,0,*7C
1499209533.41,49082,15.94,74238.5,0.35,0.01,-0.03,0,*63
1499209534.57,49083,15.94,74236.8,0.35,0.01,-0.03,0,*62
1499209535.75,49084,15.94,74242.0,0.37,-0.03,0.01,0,*67
1499209536.93,49085,15.94,74240.3,0.37,0.01,-0.03,0,*66
1499209538.1,49086,15.94,74238.3,0.41,0.09,0.05,0,*47
1499209539.29,49087,15.94,74242.8,0.37,-0.03,0.01,0,*64
1499209540.48,49088,15.94,74240.3,0.37,-0.11,-0.03,0,*77
1499209541.66,49089,15.94,74236.8,0.41,0.05,0.05,0,*44
1499209542.84,49090,15.94,74240.3,0.37,-0.03,0.01,0,*62
1499209544.01,49091,15.94,74238.0,0.39,-0.11,-0.07,0,*75
1499209545.21,49092,15.94,74242.5,0.37,-0.11,-0.11,0,*4F
1499209546.38,49093,15.94,74238.5,0.39,-0.07,-0.07,0,*40
1499209547.58,49094,15.94,74238.3,0.37,-0.15,-0.15,0,*49
1499209548.8,49095,15.94,74240.3,0.37,-0.37,-0.27,0,*49
1499209550.0,49096,15.94,74242.3,0.37,-0.33,-0.41,0,*4E
1499209551.2,49097,15.94,74240.5,0.37,-0.37,-0.41,0,*4B
1499209552.4,49098,15.94,74244.5,0.37,-0.37,-0.37,0,*45
1499209553.6,49099,15.94,74240.0,0.37,-0.41,-0.49,0,*4C
1499209554.77,49100,15.94,74242.0,0.39,-0.49,-0.49,0,*4B
1499209555.96,49101,15.94,74236.3,0.37,-0.53,-0.61,0,*45
1499209557.16,49102,15.94,74236.5,0.37,-0.53,-0.53,0,*47
1499209558.35,49103,15.94,74236.3,0.37,-0.49,-0.49,0,*46
1499209559.56,49104,15.94,74238.3,0.37,-0.41,-0.49,0,*49
1499209560.75,49105,15.94,74234.8,0.37,-0.53,-0.53,0,*40
1499209561.94,49106,15.94,74238.3,0.35,-0.41,-0.41,0,*41
1499209563.12,49107,15.94,74236.5,0.35,-0.41,-0.41,0,*40
1499209564.31,49108,15.94,74236.0,0.35,-0.41,-0.41,0,*4F
1499209565.5,49109,15.94,74230.8,0.35,-0.33,-0.27,0,*4B
1499209566.72,49110,15.94,74232.5,0.35,-0.27,-0.27,0,*46
1499209567.94,49111,15.94,74236.0,0.33,-0.29,-0.27,0,*4F
1499209569.16,49112,15.94,74236.8,0.35,-0.27,-0.27,0,*44
1499209570.38,49113,16.0,74238.0,0.35,-0.23,-0.23,0,*45
1499209571.59,49114,15.94,74234.8,0.35,-0.23,-0.11,0,*43
1499209572.77,49115,16.0,74234.3,0.35,-0.15,-0.11,0,*47
1499209573.95,49116,15.94,74232.3,0.35,-0.15,-0.11,0,*44
1499209575.15,49117,15.94,74238.3,0.37,-0.15,-0.15,0,*43
1499209576.33,49118,15.94,74240.0,0.35,-0.15,-0.15,0,*4E
1499209577.51,49119,15.94,74242.5,0.35,-0.11,-0.15,0,*4B
1499209578.69,49120,15.94,74242.3,0.35,-0.11,-0.15,0,*41
1499209579.87,49121,15.94,74238.5,0.35,-0.11,-0.15,0,*40
1499209581.06,49122,15.94,74236.3,0.35,-0.11,-0.15,0,*43
1499209582.26,49123,15.94,74242.5,0.35,-0.23,-0.15,0,*43
1499209583.48,49124,15.94,74242.3,0.35,-0.23,-0.23,0,*41
1499209584.72,49125,15.94,74244.5,0.37,-0.23,-0.23,0,*42
1499209585.97,49126,15.94,74246.3,0.37,-0.27,-0.23,0,*45
1499209587.21,49127,15.94,74246.3,0.37,-0.23,-0.27,0,*44
1499209588.43,49128,15.94,74238.0,0.37,-0.33,-0.27,0,*4A
1499209589.62,49129,15.94,74240.8,0.37,-0.37,-0.33,0,*4A
1499209590.82,49130,15.94,74240.0,0.37,-0.33,-0.37,0,*42
1499209592.02,49131,15.94,74242.0,0.37,-0.33,-0.37,0,*43
1499209593.21,49132,15.94,74244.5,0.37,-0.37,-0.37,0,*44
1499209594.42,49133,15.94,74242.8,0.37,-0.41,-0.41,0,*45
1499209595.62,49134,15.94,74240.5,0.37,-0.53,-0.53,0,*42
1499209596.79,49135,15.94,74242.0,0.35,-0.65,-0.65,0,*41
1499209597.99,49136,15.94,74238.5,0.33,-0.73,-0.73,0,*44
1499209599.21,49137,15.94,74240.5,0.35,-0.85,-0.85,0,*43
1499209600.45,49138,15.94,74242.5,0.33,-0.89,-0.93,0,*41
1499209601.67,49139,15.94,74238.3,0.35,-0.89,-0.89,0,*4D
1499209602.9,49140,15.94,74234.5,0.35,-1.01,-0.97,0,*7D
1499209604.14,49141,15.94,74232.5,0.33,-0.93,-0.93,0,*44
1499209605.36,49142,15.94,74232.5,0.31,-0.89,-0.89,0,*45
1499209606.53,49143,15.94,74232.3,0.31,-0.81,-0.81,0,*44
1499209607.7,49144,15.94,74236.0,0.31,-0.65,-0.57,0,*42
1499209608.87,49145,15.94,74226.0,0.31,-0.65,-0.65,0,*42
1499209610.05,49146,15.94,74224.8,0.31,-0.53,-0.57,0,*45
1499209611.22,49147,15.94,74220.8,0.31,-0.45,-0.45,0,*40
1499209612.4,49148,15.94,74222.3,0.31,-0.37,-0.37,0,*4F
1499209613.57,49149,15.94,74224.8,0.31,-0.37,-0.37,0,*4E
1499209614.77,49150,15.94,74220.8,0.31,-0.29,-0.27,0,*48
1499209615.96,49151,15.94,74220.3,0.29,-0.29,-0.29,0,*4E
1499209617.15,49152,15.94,74220.0,0.33,-0.19,-0.29,0,*45
1499209618.35,49153,15.94,74226.0,0.31,-0.27,-0.29,0,*4B
1499209619.55,49154,15.94,74222.5,0.33,-0.19,-0.19,0,*40
1499209620.72,49155,15.94,74226.3,0.35,-0.15,-0.19,0,*4B
1499209621.92,49156,15.94,74228.0,0.33,-0.15,-0.15,0,*42
1499209623.11,49157,15.94,74224.5,0.33,-0.07,-0.03,0,*47
1499209624.29,49158,15.94,74234.5,0.33,-0.03,0.05,0,*67
1499209625.48,49159,15.94,74230.5,0.33,-0.07,-0.03,0,*49
1499209626.67,49160,15.94,74232.0,0.33,-0.07,-0.07,0,*47
1499209627.85,49161,15.94,74238.8,0.33,-0.07,-0.07,0,*46
1499209629.04,49162,16.0,74238.3,0.33,-0.07,-0.03,0,*41
1499209630.22,49163,15.94,74236.0,0.35,-0.15,-0.11,0,*46
1499209631.4,49164,15.94,74240.8,0.35,-0.11,-0.15,0,*41
1499209632.6,49165,15.94,74242.0,0.35,-0.15,-0.23,0,*41
1499209633.8,49166,15.94,74236.0,0.35,-0.11,-0.23,0,*46
1499209635.02,49167,15.94,74236.8,0.35,-0.23,-0.27,0,*42
1499209636.24,49168,15.94,74234.8,0.35,-0.27,-0.27,0,*49
1499209637.46,49169,15.94,74236.3,0.33,-0.27,-0.29,0,*40
1499209638.66,49170,15.94,74234.5,0.35,-0.23,-0.15,0,*45
1499209639.84,49171,15.94,74232.5,0.35,-0.15,-0.15,0,*41
1499209641.02,49172,15.94,74234.3,0.35,-0.15,-0.11,0,*46
1499209642.2,49173,15.94,74236.3,0.35,-0.15,-0.15,0,*43
1499209643.42,49174,15.94,74238.5,0.35,-0.27,-0.27,0,*44
1499209644.6,49175,15.94,74238.8,0.35,-0.33,-0.37,0,*41
1499209645.78,49176,15.94,74240.5,0.35,-0.37,-0.37,0,*46
1499209646.96,49177,15.94,74242.0,0.35,-0.37,-0.37,0,*47
1499209648.14,49178,15.94,74238.8,0.35,-0.37,-0.41,0,*49
1499209649.34,49179,15.94,74236.5,0.37,-0.37,-0.49,0,*42
1499209650.51,49180,15.94,74238.5,0.35,-0.49,-0.49,0,*4F
1499209651.69,49181,15.94,74240.0,0.35,-0.49,-0.49,0,*4E
1499209652.87,49182,15.94,74238.0,0.35,-0.49,-0.41,0,*45
1499209654.05,49183,15.94,74236.8,0.35,-0.41,-0.41,0,*4C
1499209655.25,49184,15.94,74238.5,0.33,-0.45,-0.45,0,*4D
1499209656.43,49185,15.94,74242.5,0.35,-0.41,-0.41,0,*4A
1499209657.64,49186,15.94,74238.5,0.33,-0.45,-0.41,0,*4B
1499209658.83,49187,15.94,74238.5,0.33,-0.45,-0.45,0,*4E
1499209660.02,49188,15.94,74236.3,0.35,-0.41,-0.41,0,*47
1499209661.2,49189,15.94,74242.0,0.35,-0.41,-0.41,0,*46
1499209662.39,49190,15.94,74242.5,0.35,-0.41,-0.41,0,*4E
1499209663.58,49191,15.94,74240.5,0.33,-0.45,-0.45,0,*49
1499209664.78,49192,15.94,74232.8,0.33,-0.45,-0.53,0,*4D
1499209665.97,49193,15.94,74230.5,0.33,-0.53,-0.53,0,*4B
1499209667.17,49194,15.94,74232.8,0.33,-0.45,-0.45,0,*4C
1499209668.37,49195,15.94,74234.8,0.33,-0.45,-0.37,0,*48
1499209669.55,49196,15.94,74236.8,0.35,-0.37,-0.33,0,*4C
1499209670.74,49197,15.94,74232.5,0.33,-0.37,-0.37,0,*4F
1499209671.92,49198,15.94,74234.0,0.35,-0.37,-0.37,0,*46
1499209673.17,49199,15.94,74236.3,0.33,-0.23,-0.27,0,*45
1499209674.37,49200,15.94,74238.3,0.35,-0.23,-0.15,0,*41
1499209675.59,49201,15.94,74232.8,0.33,-0.27,-0.19,0,*4E
1499209676.79,49202,15.94,74238.0,0.33,-0.37,-0.29,0,*4F
1499209677.96,49203,15.94,74236.8,0.35,-0.37,-0.37,0,*47
1499209679.14,49204,15.94,74234.5,0.35,-0.37,-0.37,0,*40
1499209680.33,49205,15.94,74236.0,0.35,-0.41,-0.41,0,*41
1499209681.52,49206,15.94,74236.5,0.33,-0.57,-0.57,0,*44
1499209682.7,49207,15.94,74238.8,0.35,-0.65,-0.65,0,*43
1499209683.89,49208,15.94,74238.8,0.33,-0.77,-0.77,0,*4A
1499209685.09,49209,15.94,74236.3,0.33,-0.77,-0.77,0,*4B
1499209686.29,49210,15.94,74238.0,0.33,-0.81,-0.81,0,*43
1499209687.53,49211,15.94,74240.0,0.33,-0.89,-0.93,0,*49
1499209688.75,49212,15.94,74236.8,0.31,-0.93,-1.01,0,*79
1499209690.0,49213,15.94,74232.0,0.29,-0.93,-1.05,0,*75
1499209691.26,49214,15.94,74228.3,0.29,-1.05,-1.09,0,*40
1499209692.5,49215,15.94,74228.5,0.31,-1.05,-1.05,0,*44
1499209693.75,49216,15.94,74234.0,0.29,-0.97,-0.97,0,*4E
1499209695.0,49217,15.94,74236.0,0.29,-0.97,-1.05,0,*75
1499209696.25,49218,15.94,74232.8,0.29,-0.93,-0.97,0,*44
1499209697.49,49219,15.94,74232.0,0.29,-0.93,-0.97,0,*45
1499209698.73,49220,15.94,74230.3,0.29,-0.85,-0.97,0,*48
1499209699.97,49221,15.94,74228.8,0.23,-1.01,-1.01,0,*40
1499209701.2,49222,15.94,74230.3,0.27,-1.05,-1.05,0,*47
1499209702.44,49223,15.94,74230.8,0.23,-1.01,-1.09,0,*4A
1499209703.67,49224,15.94,74228.8,0.27,-1.09,-1.09,0,*41
1499209704.9,49225,15.94,74234.0,0.23,-1.09,-1.05,0,*48
1499209706.13,49226,15.94,74230.8,0.23,-1.13,-1.13,0,*47